B3355 ZBAA-VHHH

Flight info

Callsign B3355
Flight time N/A
Altitude 36100
Route RUSDO W45 IPLEV B458 DADGA W37 OMBEB R473 WYN W18 NLG W23 ZUH R473 SIERA
Aircraft CL60/M-SBDE1E2E3FGHIJ1J4J5J7M3RWXYZ/LB1V1D1

Departure

Time 2026-05-05 00:55
Airport Beijing Capital International Airport (ZBAA)

Arrival

Time N/A
Airport Hong Kong International Airport (VHHH)
Time Latitude Longitude Altitude Speed Heading
2026-05-05 00:14 40.05301 116.59457 122 ft 0 kts 353°
2026-05-05 00:49 40.05307 116.59461 122 ft 6 kts 58°
2026-05-05 00:49 40.05311 116.59530 122 ft 8 kts 88°
2026-05-05 00:49 40.05328 116.59603 122 ft 9 kts 21°
2026-05-05 00:49 40.05392 116.59598 122 ft 7 kts 355°
2026-05-05 00:50 40.05447 116.59618 122 ft 8 kts 65°
2026-05-05 00:50 40.05450 116.59668 122 ft 4 kts 85°
2026-05-05 00:50 40.05453 116.59704 122 ft 3 kts 84°
2026-05-05 00:50 40.05458 116.59748 122 ft 5 kts 79°
2026-05-05 00:51 40.05466 116.59804 122 ft 6 kts 81°
2026-05-05 00:51 40.05470 116.59837 122 ft 0 kts 82°
2026-05-05 00:52 40.05475 116.59869 122 ft 7 kts 72°
2026-05-05 00:53 40.05510 116.59927 122 ft 9 kts 45°
2026-05-05 00:53 40.05560 116.59985 122 ft 8 kts 37°
2026-05-05 00:53 40.05603 116.60004 122 ft 0 kts 355°
2026-05-05 00:54 40.05619 116.60001 122 ft 16 kts 354°
2026-05-05 00:54 40.06059 116.59936 122 ft 110 kts 350°
2026-05-05 00:54 40.07053 116.59785 275 ft 168 kts 356°
2026-05-05 00:55 40.08364 116.59584 620 ft 209 kts 355°
2026-05-05 00:55 40.09881 116.59350 1312 ft 233 kts 354°
2026-05-05 00:55 40.11561 116.59089 2162 ft 257 kts 354°
2026-05-05 00:55 40.13355 116.58807 3357 ft 266 kts 352°
2026-05-05 00:56 40.15210 116.58512 4250 ft 279 kts 352°
2026-05-05 00:56 40.17145 116.58205 4676 ft 281 kts 351°
2026-05-05 00:56 40.19093 116.57898 4834 ft 284 kts 351°
2026-05-05 00:56 40.21139 116.57569 5499 ft 302 kts 350°
2026-05-05 00:57 40.23174 116.57245 6914 ft 297 kts 348°
2026-05-05 00:57 40.25097 116.56565 8182 ft 288 kts 329°
2026-05-05 00:57 40.26694 116.55074 9304 ft 286 kts 314°
2026-05-05 00:57 40.28167 116.53347 10246 ft 296 kts 314°
2026-05-05 00:58 40.29787 116.51433 10559 ft 328 kts 312°
2026-05-05 00:58 40.31141 116.48997 11158 ft 339 kts 291°
2026-05-05 00:58 40.31656 116.46003 11948 ft 342 kts 271°
2026-05-05 00:58 40.31667 116.42892 12804 ft 349 kts 269°
2026-05-05 00:59 40.31665 116.39706 13640 ft 356 kts 269°
2026-05-05 00:59 40.31665 116.36456 14507 ft 361 kts 269°
2026-05-05 00:59 40.31665 116.33182 15376 ft 364 kts 269°
2026-05-05 00:59 40.31665 116.29858 16219 ft 368 kts 270°
2026-05-05 01:00 40.31663 116.26529 16992 ft 372 kts 270°
2026-05-05 01:00 40.31660 116.23143 17734 ft 377 kts 270°
2026-05-05 01:00 40.31656 116.19709 18445 ft 381 kts 271°
2026-05-05 01:00 40.31650 116.16245 19192 ft 383 kts 271°
2026-05-05 01:01 40.31644 116.12746 19942 ft 384 kts 271°
2026-05-05 01:01 40.31636 116.09262 20604 ft 387 kts 271°
2026-05-05 01:01 40.31628 116.05731 21207 ft 391 kts 271°
2026-05-05 01:01 40.31466 116.02206 21849 ft 394 kts 262°
2026-05-05 01:02 40.30667 115.98769 22424 ft 401 kts 248°
2026-05-05 01:02 40.29152 115.95637 22941 ft 410 kts 232°
2026-05-05 01:02 40.26999 115.93166 23445 ft 420 kts 216°
2026-05-05 01:02 40.24442 115.91343 23877 ft 427 kts 211°
2026-05-05 01:03 40.21783 115.89545 24353 ft 431 kts 211°
2026-05-05 01:03 40.19126 115.87742 24855 ft 433 kts 211°
2026-05-05 01:03 40.16420 115.85908 25294 ft 436 kts 211°
2026-05-05 01:03 40.13727 115.84084 25738 ft 438 kts 211°
2026-05-05 01:04 40.11031 115.82259 26166 ft 441 kts 211°
2026-05-05 01:04 40.05540 115.78548 26920 ft 446 kts 211°
2026-05-05 01:04 40.02752 115.76666 27270 ft 449 kts 211°
2026-05-05 01:05 39.99934 115.74766 27599 ft 452 kts 211°
2026-05-05 01:05 39.97127 115.72875 27935 ft 454 kts 211°
2026-05-05 01:05 39.94274 115.70955 28254 ft 457 kts 211°
2026-05-05 01:05 39.91392 115.69017 28584 ft 459 kts 211°
2026-05-05 01:06 39.88572 115.67123 28890 ft 461 kts 211°
2026-05-05 01:06 39.85761 115.64968 29174 ft 457 kts 221°
2026-05-05 01:06 39.83473 115.62098 29429 ft 450 kts 236°
2026-05-05 01:06 39.81802 115.58682 29640 ft 448 kts 245°
2026-05-05 01:07 39.80342 115.55090 29849 ft 450 kts 246°
2026-05-05 01:07 39.78857 115.51454 30096 ft 450 kts 246°
2026-05-05 01:07 39.77384 115.47856 30326 ft 451 kts 246°
2026-05-05 01:07 39.75922 115.44276 30525 ft 452 kts 246°
2026-05-05 01:08 39.74475 115.40627 30712 ft 453 kts 247°
2026-05-05 01:08 39.73033 115.36976 30906 ft 454 kts 246°
2026-05-05 01:08 39.71590 115.33328 31048 ft 456 kts 246°
2026-05-05 01:08 39.70138 115.29662 31195 ft 457 kts 246°
2026-05-05 01:09 39.68670 115.25960 31337 ft 459 kts 246°
2026-05-05 01:09 39.67212 115.22289 31490 ft 460 kts 246°
2026-05-05 01:09 39.65758 115.18635 31610 ft 461 kts 246°
2026-05-05 01:09 39.64283 115.14929 31753 ft 461 kts 246°
2026-05-05 01:10 39.61331 115.07532 31950 ft 463 kts 246°
2026-05-05 01:10 39.59856 115.03841 32083 ft 464 kts 246°
2026-05-05 01:10 39.58383 115.00162 32182 ft 464 kts 246°
2026-05-05 01:11 39.55397 114.92716 32385 ft 465 kts 246°
2026-05-05 01:11 39.52411 114.85290 32538 ft 467 kts 246°
2026-05-05 01:12 39.50901 114.81540 32337 ft 471 kts 246°
2026-05-05 01:12 39.49385 114.77778 32086 ft 472 kts 246°
2026-05-05 01:12 39.47874 114.74037 31841 ft 468 kts 246°
2026-05-05 01:12 39.46371 114.70323 31597 ft 464 kts 246°
2026-05-05 01:13 39.43683 114.63690 31150 ft 458 kts 246°
2026-05-05 01:13 39.42220 114.60083 30901 ft 456 kts 246°
2026-05-05 01:13 39.40761 114.56493 30703 ft 454 kts 246°
2026-05-05 01:14 39.37809 114.49239 30967 ft 457 kts 246°
2026-05-05 01:14 39.36289 114.45609 31181 ft 459 kts 243°
2026-05-05 01:14 39.34386 114.42314 31315 ft 466 kts 231°
2026-05-05 01:15 39.31907 114.39503 31421 ft 474 kts 219°
2026-05-05 01:15 39.28966 114.37425 31547 ft 481 kts 206°
2026-05-05 01:15 39.22398 114.35442 31761 ft 493 kts 188°
2026-05-05 01:16 39.15497 114.36105 31941 ft 503 kts 170°
2026-05-05 01:16 39.08682 114.38270 32143 ft 505 kts 169°
2026-05-05 01:17 39.01846 114.40382 32343 ft 506 kts 169°
2026-05-05 01:17 38.94954 114.42419 32558 ft 506 kts 170°
2026-05-05 01:18 38.91559 114.43392 32705 ft 505 kts 170°
2026-05-05 01:18 38.88115 114.44360 32828 ft 504 kts 170°
2026-05-05 01:18 38.81269 114.46202 33035 ft 504 kts 171°
2026-05-05 01:19 38.74375 114.47997 33236 ft 504 kts 171°
2026-05-05 01:19 38.70952 114.48884 33349 ft 504 kts 171°
2026-05-05 01:19 38.67474 114.49783 33464 ft 504 kts 171°
2026-05-05 01:20 38.60594 114.51552 33643 ft 504 kts 171°
2026-05-05 01:20 38.57137 114.52447 33757 ft 504 kts 171°
2026-05-05 01:20 38.53743 114.53335 33864 ft 504 kts 171°
2026-05-05 01:21 38.46859 114.55128 33886 ft 507 kts 171°
2026-05-05 01:21 38.39886 114.56786 33884 ft 509 kts 172°
2026-05-05 01:22 38.32879 114.58354 33883 ft 511 kts 172°
2026-05-05 01:22 38.25901 114.59914 33884 ft 511 kts 172°
2026-05-05 01:23 38.18911 114.61473 33888 ft 511 kts 172°
2026-05-05 01:23 38.11894 114.63036 33892 ft 512 kts 172°
2026-05-05 01:24 38.04874 114.64595 33893 ft 512 kts 172°
2026-05-05 01:24 37.97839 114.66155 33898 ft 512 kts 172°
2026-05-05 01:25 37.90825 114.67706 33890 ft 513 kts 172°
2026-05-05 01:25 37.83795 114.69259 33892 ft 513 kts 172°
2026-05-05 01:26 37.76755 114.70811 33896 ft 513 kts 172°
2026-05-05 01:26 37.69694 114.72364 33895 ft 513 kts 172°
2026-05-05 01:27 37.62672 114.73905 33892 ft 514 kts 172°
2026-05-05 01:27 37.55642 114.75446 33896 ft 513 kts 172°
2026-05-05 01:28 37.48559 114.76994 33899 ft 514 kts 172°
2026-05-05 01:28 37.41526 114.78524 33902 ft 515 kts 172°
2026-05-05 01:29 37.34471 114.80057 33912 ft 514 kts 172°
2026-05-05 01:29 37.27420 114.81595 33912 ft 514 kts 171°
2026-05-05 01:30 37.20340 114.83242 33913 ft 515 kts 171°
2026-05-05 01:30 37.13285 114.84884 33918 ft 515 kts 171°
2026-05-05 01:31 37.06229 114.86523 33913 ft 515 kts 171°
2026-05-05 01:31 36.99166 114.88160 33910 ft 515 kts 171°
2026-05-05 01:32 36.92152 114.89782 33914 ft 514 kts 171°
2026-05-05 01:32 36.85113 114.91407 33910 ft 514 kts 170°
2026-05-05 01:33 36.78040 114.93037 33926 ft 515 kts 170°
2026-05-05 01:33 36.70986 114.94659 33926 ft 515 kts 170°
2026-05-05 01:34 36.63936 114.96277 33926 ft 515 kts 170°
2026-05-05 01:34 36.56864 114.97897 33930 ft 515 kts 170°
2026-05-05 01:35 36.49755 114.99522 33923 ft 515 kts 170°
2026-05-05 01:35 36.42728 115.01126 33939 ft 516 kts 170°
2026-05-05 01:36 36.35651 115.02401 33944 ft 515 kts 178°
2026-05-05 01:36 36.28503 115.02073 33941 ft 514 kts 186°
2026-05-05 01:37 36.21337 115.01354 33937 ft 514 kts 186°
2026-05-05 01:37 36.14249 115.00648 33939 ft 514 kts 186°
2026-05-05 01:38 36.07100 114.99937 33956 ft 514 kts 186°
2026-05-05 01:38 35.99956 114.99229 33942 ft 515 kts 186°
2026-05-05 01:39 35.92808 114.98524 33955 ft 515 kts 186°
2026-05-05 01:39 35.85661 114.97819 33957 ft 515 kts 186°
2026-05-05 01:40 35.78492 114.97114 33962 ft 515 kts 186°
2026-05-05 01:40 35.71334 114.96413 33953 ft 516 kts 186°
2026-05-05 01:41 35.64204 114.95714 33965 ft 516 kts 186°
2026-05-05 01:41 35.56981 114.95009 33961 ft 516 kts 186°
2026-05-05 01:42 35.49824 114.94311 33970 ft 516 kts 186°
2026-05-05 01:42 35.42665 114.93614 33975 ft 516 kts 186°
2026-05-05 01:43 35.35527 114.92921 33976 ft 516 kts 186°
2026-05-05 01:43 35.28350 114.92221 33979 ft 516 kts 186°
2026-05-05 01:44 35.21141 114.91510 33983 ft 516 kts 186°
2026-05-05 01:44 35.13961 114.90803 33983 ft 516 kts 186°
2026-05-05 01:45 35.06784 114.90069 33988 ft 516 kts 186°
2026-05-05 01:45 34.99615 114.89328 33992 ft 516 kts 186°
2026-05-05 01:46 34.92448 114.88590 33995 ft 516 kts 186°
2026-05-05 01:46 34.85319 114.87856 33995 ft 516 kts 186°
2026-05-05 01:47 34.78125 114.87117 33997 ft 515 kts 186°
2026-05-05 01:47 34.71004 114.86388 33992 ft 515 kts 186°
2026-05-05 01:48 34.63836 114.85654 34003 ft 515 kts 186°
2026-05-05 01:48 34.56738 114.84929 34011 ft 515 kts 186°
2026-05-05 01:49 34.49544 114.84196 34006 ft 514 kts 186°
2026-05-05 01:49 34.42438 114.83472 34003 ft 514 kts 186°
2026-05-05 01:50 34.35316 114.82748 34006 ft 513 kts 186°
2026-05-05 01:50 34.28160 114.82023 34005 ft 513 kts 186°
2026-05-05 01:51 34.21032 114.81301 34000 ft 512 kts 186°
2026-05-05 01:51 34.13947 114.80597 34011 ft 512 kts 186°
2026-05-05 01:52 34.06838 114.79913 34010 ft 511 kts 186°
2026-05-05 01:52 33.99770 114.79234 34005 ft 511 kts 186°
2026-05-05 01:53 33.92684 114.78554 34006 ft 510 kts 186°
2026-05-05 01:53 33.85576 114.77872 34015 ft 510 kts 186°
2026-05-05 01:54 33.78483 114.77170 34020 ft 510 kts 186°
2026-05-05 01:54 33.71432 114.76464 34019 ft 510 kts 186°
2026-05-05 01:55 33.64366 114.75800 34025 ft 509 kts 186°
2026-05-05 01:55 33.57299 114.75133 34011 ft 509 kts 186°
2026-05-05 01:56 33.50234 114.74401 34011 ft 508 kts 187°
2026-05-05 01:56 33.43144 114.73698 34023 ft 508 kts 186°
2026-05-05 01:57 33.36096 114.73016 34031 ft 508 kts 186°
2026-05-05 01:57 33.29032 114.72334 34029 ft 507 kts 186°
2026-05-05 01:58 33.22011 114.71656 34026 ft 508 kts 187°
2026-05-05 01:58 33.14932 114.70960 34027 ft 507 kts 187°
2026-05-05 01:59 33.07909 114.70267 34026 ft 507 kts 187°
2026-05-05 01:59 33.00851 114.69570 34037 ft 506 kts 187°
2026-05-05 02:00 32.93870 114.68883 34029 ft 506 kts 187°
2026-05-05 02:00 32.86824 114.68195 34042 ft 506 kts 187°
2026-05-05 02:01 32.79791 114.67532 34035 ft 507 kts 187°
2026-05-05 02:01 32.72760 114.66871 34033 ft 507 kts 187°
2026-05-05 02:02 32.65728 114.66211 34033 ft 507 kts 187°
2026-05-05 02:02 32.58705 114.65547 34043 ft 506 kts 187°
2026-05-05 02:03 32.51664 114.64881 34047 ft 507 kts 187°
2026-05-05 02:03 32.44609 114.64215 34030 ft 507 kts 187°
2026-05-05 02:04 32.37564 114.63550 34047 ft 507 kts 187°
2026-05-05 02:04 32.30526 114.62867 34044 ft 508 kts 188°
2026-05-05 02:05 32.23454 114.62181 34033 ft 508 kts 188°
2026-05-05 02:05 32.16425 114.61501 34044 ft 506 kts 188°
2026-05-05 02:06 32.09370 114.60817 34049 ft 505 kts 188°
2026-05-05 02:06 32.02356 114.60135 34045 ft 506 kts 188°
2026-05-05 02:07 31.95320 114.59451 34039 ft 507 kts 188°
2026-05-05 02:07 31.88329 114.58775 34049 ft 506 kts 188°
2026-05-05 02:08 31.81335 114.58097 34038 ft 506 kts 188°
2026-05-05 02:08 31.74284 114.57416 34031 ft 505 kts 188°
2026-05-05 02:09 31.67255 114.56738 34042 ft 506 kts 188°
2026-05-05 02:09 31.60243 114.56065 34051 ft 506 kts 188°
2026-05-05 02:10 31.53208 114.55392 34065 ft 505 kts 188°
2026-05-05 02:10 31.46165 114.54719 34064 ft 505 kts 189°
2026-05-05 02:11 31.39167 114.54051 34058 ft 505 kts 189°